QPF
0.00 0.01 0.01 0.01 0.00 0.00 0.00 0.00 0.00 0.00 0.01 0.00 0.00 0.00 0.01 0.01 0.01 0.00 0.00 0.01 0.01 0.00 0.02 0.03 0.02 0.00 0.00 0.00 0.00 0.02 0.04 0.00 0.00 0.00 0.00 0.00 0.00 0.01 0.01 0.00 0.01 0.00 0.00
0.02 0.00 0.00 0.01 0.01 0.00 0.00 0.00 0.00 0.00 0.00 0.01 0.01 0.00 0.03 0.03 0.01 0.01 0.03 0.02 0.00 0.00 0.00 0.01 0.03 0.03 0.02 0.00 0.00 0.00 0.00 0.01 0.00 0.00 0.00 0.00 0.00 0.00 0.00 0.00 0.00 0.00 0.00
0.01 0.01 0.00 0.00 0.01 0.00 0.00 0.00 0.00 0.00 0.00 0.01 0.02 0.00 0.02 0.02 0.01 0.01 0.05 0.04 0.01 0.00 0.00 0.00 0.00 0.01 0.00 0.00 0.00 0.00 0.00 0.00 0.02 0.00 0.00 0.00 0.00 0.00 0.00 0.00 0.00 0.00 0.00
0.00 0.00 0.00 0.00 0.01 0.00 0.00 0.00 0.00 0.00 0.00 0.00 0.00 0.00 0.00 0.00 0.00 0.00 0.01 0.01 0.00 0.00 0.00 0.00 0.00 0.07 0.07 0.00 0.00 0.02 0.00 0.00 0.00 0.00 0.00 0.00 0.00 0.00 0.00 0.00 0.00 0.00 0.00
0.00 0.00 0.00 0.00 0.02 0.01 0.01 0.00 0.00 0.00 0.00 0.00 0.00 0.00 0.00 0.00 0.00 0.00 0.00 0.00 0.00 0.00 0.00 0.00 0.00 0.10 0.16 0.06 0.00 0.03 0.03 0.00 0.00 0.00 0.00 0.00 0.00 0.00 0.00 0.00 0.00 0.00 0.00
0.00 0.00 0.00 0.00 0.00 0.02 0.04 0.02 0.00 0.00 0.00 0.00 0.00 0.00 0.00 0.00 0.00 0.00 0.00 0.00 0.00 0.01 0.01 0.01 0.00 0.04 0.10 0.07 0.07 0.15 0.12 0.02 0.00 0.00 0.00 0.00 0.00 0.00 0.00 0.00 0.00 0.00 0.00
0.01 0.01 0.01 0.00 0.00 0.00 0.03 0.03 0.00 0.00 0.01 0.00 0.00 0.00 0.00 0.00 0.00 0.00 0.00 0.00 0.00 0.00 0.00 0.01 0.00 0.00 0.01 0.01 0.13 0.14 0.11 0.05 0.00 0.00 0.00 0.00 0.00 0.00 0.00 0.00 0.00 0.00 0.00
0.00 0.00 0.00 0.00 0.00 0.00 0.01 0.00 0.02 0.05 0.02 0.01 0.02 0.03 0.03 0.00 0.01 0.00 0.00 0.01 0.00 0.00 0.01 0.04 0.04 0.04 0.04 0.03 0.02 0.02 0.03 0.01 0.00 0.00 0.00 0.00 0.00 0.00 0.00 0.00 0.00 0.00 0.00
0.00 0.00 0.00 0.01 0.07 0.04 0.00 0.01 0.02 0.01 0.01 0.00 0.01 0.00 0.00 0.01 0.03 0.07 0.10 0.04 0.00 0.00 0.00 0.04 0.04 0.02 0.02 0.02 0.01 0.00 0.00 0.00 0.00 0.00 0.00 0.00 0.00 0.00 0.00 0.00 0.00 0.00 0.00
0.00 0.00 0.00 0.00 0.00 0.00 0.04 0.03 0.01 0.00 0.00 0.01 0.03 0.08 0.08 0.03 0.09 0.14 0.20 0.10 0.01 0.01 0.00 0.00 0.00 0.00 0.05 0.06 0.02 0.00 0.00 0.00 0.00 0.00 0.00 0.00 0.00 0.00 0.00 0.00 0.00 0.00 0.00
0.00 0.00 0.00 0.00 0.00 0.00 0.00 0.01 0.02 0.03 0.03 0.04 0.02 0.04 0.05 0.03 0.07 0.17 0.26 0.26 0.23 0.20 0.05 0.00 0.01 0.06 0.11 0.17 0.15 0.07 0.05 0.04 0.00 0.00 0.00 0.00 0.00 0.00 0.00 0.00 0.00 0.00 0.00
0.00 0.00 0.00 0.00 0.00 0.00 0.00 0.00 0.00 0.00 0.01 0.04 0.06 0.08 0.08 0.08 0.10 0.10 0.09 0.09 0.10 0.04 0.01 0.01 0.05 0.16 0.22 0.20 0.15 0.11 0.09 0.05 0.02 0.00 0.00 0.00 0.00 0.00 0.00 0.00 0.00 0.00 0.00
0.00 0.00 0.00 0.00 0.00 0.00 0.00 0.00 0.00 0.00 0.00 0.00 0.00 0.00 0.02 0.03 0.02 0.03 0.05 0.06 0.06 0.03 0.05 0.05 0.07 0.11 0.13 0.12 0.09 0.08 0.06 0.03 0.02 0.00 0.00 0.00 0.00 0.00 0.00 0.00 0.00 0.00 0.00
0.00 0.00 0.00 0.00 0.00 0.00 0.00 0.00 0.00 0.00 0.00 0.00 0.00 0.00 0.00 0.00 0.00 0.00 0.00 0.00 0.01 0.02 0.04 0.07 0.09 0.10 0.08 0.08 0.07 0.07 0.06 0.04 0.02 0.01 0.00 0.00 0.00 0.00 0.00 0.00 0.00 0.00 0.00
0.00 0.00 0.00 0.00 0.00 0.00 0.00 0.00 0.00 0.00 0.00 0.00 0.00 0.00 0.00 0.00 0.00 0.00 0.00 0.00 0.00 0.00 0.00 0.02 0.04 0.06 0.09 0.09 0.09 0.08 0.06 0.03 0.01 0.00 0.00 0.00 0.00 0.00 0.00 0.00 0.00 0.00 0.00
0.00 0.00 0.00 0.00 0.00 0.00 0.00 0.00 0.00 0.00 0.00 0.00 0.00 0.00 0.00 0.00 0.00 0.00 0.00 0.00 0.00 0.00 0.00 0.00 0.02 0.03 0.03 0.03 0.03 0.02 0.01 0.01 0.00 0.00 0.00 0.00 0.00 0.00 0.00 0.00 0.00 0.00 0.00
0.00 0.00 0.00 0.00 0.00 0.00 0.00 0.00 0.00 0.00 0.00 0.00 0.00 0.00 0.00 0.00 0.00 0.00 0.00 0.00 0.00 0.00 0.00 0.00 0.00 0.00 0.01 0.01 0.00 0.00 0.00 0.00 0.00 0.00 0.00 0.00 0.00 0.00 0.00 0.00 0.00 0.00 0.00
0.00 0.00 0.00 0.00 0.00 0.00 0.00 0.00 0.00 0.00 0.00 0.00 0.00 0.00 0.00 0.00 0.00 0.00 0.00 0.00 0.00 0.00 0.00 0.00 0.00 0.00 0.00 0.00 0.00 0.00 0.00 0.00 0.00 0.00 0.00 0.00 0.00 0.00 0.00 0.00 0.00 0.00 0.00
0.00 0.00 0.00 0.00 0.00 0.00 0.00 0.00 0.00 0.00 0.00 0.00 0.00 0.00 0.00 0.00 0.00 0.00 0.00 0.00 0.00 0.00 0.00 0.00 0.00 0.00 0.00 0.00 0.00 0.00 0.00 0.00 0.00 0.00 0.00 0.00 0.00 0.00 0.00 0.00 0.00 0.00 0.00
0.00 0.00 0.00 0.00 0.00 0.00 0.00 0.00 0.00 0.00 0.00 0.00 0.00 0.00 0.00 0.00 0.00 0.00 0.01 0.00 0.00 0.01 0.00 0.00 0.00 0.00 0.00 0.00 0.00 0.00 0.00 0.00 0.00 0.00 0.00 0.00 0.00 0.00 0.00 0.00 0.00 0.00 0.00
0.00 0.00 0.00 0.00 0.00 0.00 0.00 0.00 0.00 0.03 0.06 0.02 0.01 0.00 0.00 0.01 0.02 0.03 0.06 0.01 0.00 0.00 0.00 0.00 0.00 0.00 0.00 0.00 0.00 0.00 0.00 0.00 0.00 0.00 0.00 0.00 0.00 0.00 0.00 0.00 0.00 0.00 0.00
0.00 0.00 0.00 0.00 0.00 0.00 0.00 0.00 0.01 0.03 0.03 0.08 0.08 0.06 0.03 0.00 0.02 0.03 0.02 0.01 0.00 0.00 0.00 0.00 0.00 0.00 0.00 0.00 0.00 0.00 0.00 0.00 0.00 0.00 0.00 0.00 0.00 0.00 0.00 0.00 0.00 0.00 0.00
0.00 0.00 0.00 0.00 0.00 0.00 0.00 0.00 0.00 0.00 0.00 0.00 0.01 0.04 0.02 0.00 0.01 0.02 0.02 0.01 0.01 0.00 0.00 0.00 0.00 0.00 0.00 0.00 0.00 0.00 0.00 0.00 0.00 0.00 0.00 0.00 0.00 0.00 0.00 0.00 0.00 0.00 0.00
0.00 0.00 0.00 0.00 0.00 0.00 0.00 0.00 0.00 0.00 0.00 0.00 0.00 0.00 0.00 0.00 0.01 0.01 0.01 0.00 0.00 0.00 0.00 0.00 0.00 0.00 0.00 0.00 0.00 0.00 0.00 0.00 0.00 0.00 0.00 0.00 0.00 0.00 0.00 0.00 0.00 0.00 0.00
0.00 0.00 0.00 0.00 0.00 0.00 0.00 0.00 0.00 0.00 0.00 0.00 0.00 0.00 0.00 0.00 0.00 0.00 0.00 0.00 0.00 0.00 0.00 0.00 0.00 0.00 0.00 0.00 0.00 0.00 0.00 0.00 0.00 0.00 0.00 0.00 0.00 0.00 0.00 0.00 0.00 0.00 0.00
0.00 0.00 0.00 0.00 0.00 0.00 0.00 0.00 0.00 0.00 0.00 0.00 0.00 0.00 0.00 0.00 0.00 0.00 0.00 0.00 0.00 0.00 0.00 0.00 0.00 0.00 0.00 0.00 0.00 0.00 0.00 0.00 0.00 0.00 0.00 0.00 0.00 0.00 0.00 0.00 0.00 0.00 0.00
MSLP
1012.54 1012.86 1013.16 1013.52 1013.82 1014.12 1014.43 1014.48 1014.79 1015.01 1015.29 1015.59 1015.62 1015.88 1016.09 1016.16 1016.22 1016.55 1016.69 1016.80 1017.01 1017.04 1017.09 1017.31 1017.21 1017.06 1016.88 1016.82 1016.86 1016.94 1017.26 1017.35 1017.59 1017.33 1017.20 1016.98 1017.21 1017.46 1017.68 1018.22 1018.48 1018.89 1019.14
1012.21 1012.45 1012.67 1012.79 1013.25 1013.50 1013.76 1014.22 1014.36 1014.47 1014.71 1014.90 1015.08 1015.46 1015.79 1016.04 1016.15 1016.29 1016.47 1016.44 1016.64 1016.81 1016.75 1016.92 1016.75 1016.77 1016.85 1016.76 1016.78 1016.75 1016.88 1016.96 1017.32 1017.50 1017.29 1017.15 1017.32 1017.48 1017.66 1018.30 1018.60 1019.06 1019.35
1012.02 1012.36 1012.40 1012.61 1012.76 1012.98 1013.19 1013.56 1014.03 1014.32 1014.28 1014.47 1014.82 1015.04 1015.37 1015.68 1016.13 1016.10 1016.12 1016.19 1016.12 1016.26 1016.26 1016.39 1016.32 1016.45 1016.64 1016.69 1016.67 1016.72 1016.72 1016.78 1017.03 1017.26 1017.21 1017.21 1017.44 1017.69 1018.13 1018.57 1019.00 1019.34 1019.64
1011.90 1012.12 1012.29 1012.66 1012.52 1012.57 1012.82 1013.01 1013.43 1013.76 1014.05 1014.14 1014.21 1014.59 1014.84 1015.08 1015.33 1015.55 1015.71 1015.78 1015.87 1015.94 1015.89 1015.98 1015.96 1016.11 1016.27 1016.31 1016.47 1016.55 1016.71 1016.89 1017.01 1017.11 1017.22 1017.28 1017.38 1017.71 1018.14 1018.74 1019.29 1019.63 1019.94
1011.76 1011.91 1012.25 1012.39 1012.61 1012.51 1012.54 1012.65 1012.54 1012.94 1013.45 1013.68 1013.94 1014.21 1014.52 1014.75 1014.82 1014.99 1015.09 1015.28 1015.39 1015.53 1015.54 1015.54 1015.57 1015.58 1015.65 1015.71 1015.99 1016.16 1016.40 1016.73 1016.88 1017.04 1017.22 1017.29 1017.40 1017.71 1017.96 1018.41 1019.02 1019.61 1020.18
1011.39 1011.34 1011.86 1012.20 1012.23 1012.39 1012.45 1012.79 1012.54 1012.42 1012.80 1013.22 1013.43 1013.57 1013.80 1013.99 1014.04 1014.20 1014.44 1014.65 1014.78 1015.12 1015.31 1015.18 1015.20 1015.24 1015.42 1015.39 1015.46 1015.62 1015.74 1016.19 1016.50 1016.73 1016.90 1017.06 1017.13 1017.31 1017.65 1018.05 1018.76 1019.53 1019.98
1011.23 1011.42 1011.56 1011.76 1011.97 1012.10 1012.29 1012.29 1012.32 1012.56 1012.59 1012.84 1012.96 1013.17 1013.19 1013.26 1013.39 1013.54 1013.74 1014.15 1014.25 1014.37 1014.55 1014.72 1014.86 1014.96 1015.20 1015.41 1015.60 1015.63 1015.84 1016.00 1016.01 1016.14 1016.42 1016.64 1016.86 1017.04 1017.32 1017.75 1018.22 1018.63 1018.98
1011.24 1011.26 1011.18 1011.45 1011.58 1011.78 1011.85 1011.80 1012.16 1012.31 1012.26 1012.50 1012.65 1012.76 1012.89 1012.65 1012.73 1012.87 1013.01 1013.41 1013.74 1013.78 1013.87 1014.04 1014.25 1014.43 1014.84 1015.22 1015.52 1015.74 1015.88 1016.01 1016.00 1015.83 1015.89 1016.11 1016.33 1016.60 1016.85 1017.12 1017.63 1018.41 1018.96
1011.27 1011.06 1011.11 1011.36 1011.44 1011.53 1011.58 1011.50 1011.53 1011.82 1011.87 1011.99 1012.00 1012.08 1012.27 1012.11 1012.05 1012.26 1012.47 1012.97 1013.14 1013.10 1013.04 1013.12 1013.33 1013.61 1013.86 1014.57 1015.07 1015.60 1015.95 1015.96 1015.85 1015.69 1015.76 1015.94 1016.09 1016.32 1016.54 1017.01 1017.63 1018.07 1018.75
1011.16 1011.14 1011.01 1011.00 1011.17 1011.23 1011.12 1010.92 1010.95 1010.91 1010.94 1011.26 1011.56 1011.65 1011.84 1011.98 1011.91 1012.02 1012.28 1012.62 1012.68 1012.60 1012.46 1012.46 1012.52 1012.66 1013.00 1013.66 1014.20 1014.80 1015.36 1015.49 1015.76 1016.04 1016.15 1016.15 1016.15 1016.34 1016.46 1016.33 1016.84 1017.52 1018.19
1011.07 1011.19 1011.38 1011.42 1011.36 1011.14 1011.17 1011.09 1011.02 1011.08 1010.98 1011.04 1011.22 1011.43 1011.81 1011.97 1011.84 1011.83 1012.03 1012.24 1011.93 1011.93 1011.93 1011.75 1011.60 1011.68 1012.22 1012.71 1013.08 1013.66 1013.87 1014.39 1015.20 1015.63 1016.01 1016.13 1016.43 1016.45 1016.53 1016.58 1016.33 1016.70 1017.41
1011.25 1011.51 1011.69 1011.57 1011.49 1011.50 1011.40 1011.36 1011.50 1011.57 1011.32 1010.93 1010.72 1010.47 1010.73 1011.52 1011.74 1011.87 1011.92 1012.07 1011.93 1011.56 1011.01 1010.90 1010.99 1011.15 1011.51 1011.92 1012.60 1012.89 1013.57 1014.08 1014.81 1015.37 1015.87 1016.01 1016.46 1016.65 1016.66 1016.62 1016.64 1016.89 1017.04
1011.61 1011.88 1012.10 1012.24 1012.30 1012.12 1011.94 1011.91 1012.01 1012.03 1011.78 1011.64 1011.59 1011.67 1011.86 1012.17 1011.82 1011.92 1011.97 1011.80 1011.63 1011.67 1011.23 1010.74 1010.42 1010.66 1011.11 1011.58 1011.81 1012.20 1012.49 1013.44 1014.56 1014.68 1014.83 1015.11 1015.36 1016.12 1016.39 1016.71 1017.08 1017.31 1017.70
1011.43 1011.94 1012.31 1012.66 1012.91 1012.87 1012.75 1012.67 1012.76 1012.75 1012.68 1012.43 1012.45 1012.65 1012.69 1012.65 1012.43 1012.26 1012.09 1011.64 1011.42 1011.23 1010.93 1010.72 1010.70 1010.70 1011.06 1011.12 1011.41 1011.29 1011.44 1012.10 1012.65 1012.99 1014.13 1014.78 1015.17 1016.00 1016.50 1016.89 1017.74 1017.88 1018.32
1011.42 1011.88 1012.36 1012.80 1013.06 1013.24 1013.39 1013.42 1013.37 1013.40 1013.31 1013.10 1013.24 1013.18 1013.13 1013.06 1012.85 1012.65 1012.34 1011.80 1011.45 1011.26 1011.12 1010.95 1010.94 1011.06 1011.14 1011.37 1011.51 1011.78 1012.46 1012.39 1013.54 1013.81 1014.07 1015.17 1016.47 1016.79 1016.96 1017.35 1017.68 1018.17 1019.00
1011.64 1011.93 1012.43 1013.00 1013.36 1013.57 1013.69 1013.78 1013.68 1013.44 1013.29 1013.41 1013.32 1013.25 1013.20 1013.21 1012.88 1012.51 1012.17 1011.81 1011.55 1011.35 1011.19 1011.23 1011.21 1011.25 1011.38 1011.54 1011.76 1012.29 1012.12 1013.44 1013.75 1014.12 1015.41 1016.55 1016.94 1017.81 1018.37 1018.60 1018.16 1018.19 1019.07
1011.66 1011.89 1012.17 1012.61 1012.96 1013.17 1013.39 1013.43 1013.52 1013.51 1013.48 1013.43 1013.47 1013.43 1013.34 1013.28 1013.10 1012.91 1012.72 1012.32 1011.93 1011.69 1011.59 1011.62 1011.70 1011.82 1011.94 1012.29 1012.62 1012.81 1013.36 1013.87 1014.78 1014.47 1015.32 1016.43 1017.08 1017.38 1018.04 1018.40 1018.58 1018.95 1019.64
1011.68 1011.89 1012.11 1012.33 1012.61 1012.85 1013.02 1013.16 1013.42 1013.49 1013.55 1013.67 1013.63 1013.61 1013.55 1013.58 1013.38 1013.12 1012.84 1012.64 1012.49 1012.43 1012.39 1012.32 1012.36 1012.53 1012.71 1013.00 1013.33 1013.72 1014.28 1014.99 1015.37 1015.75 1015.96 1016.43 1017.25 1017.33 1017.89 1018.32 1018.59 1019.17 1019.37
1011.65 1011.85 1011.98 1012.21 1012.48 1012.73 1012.92 1013.11 1013.37 1013.33 1013.49 1013.75 1013.81 1013.88 1013.90 1013.77 1013.73 1013.57 1013.37 1013.26 1013.26 1013.21 1013.22 1013.02 1013.12 1013.27 1013.36 1013.65 1014.17 1014.27 1014.66 1014.97 1015.42 1015.73 1015.86 1016.22 1016.89 1017.22 1017.71 1018.15 1018.76 1018.92 1019.53
1011.44 1011.55 1011.72 1011.97 1012.26 1012.55 1012.69 1012.84 1013.05 1013.25 1013.45 1013.55 1013.70 1013.75 1013.87 1014.03 1014.02 1013.93 1013.71 1013.86 1013.50 1013.47 1013.36 1013.46 1013.42 1013.55 1013.75 1014.07 1014.31 1014.43 1014.74 1015.31 1015.44 1015.66 1015.93 1016.31 1016.71 1017.12 1017.70 1018.28 1018.67 1019.31 1019.64
1011.47 1011.65 1011.76 1011.93 1012.07 1012.21 1012.35 1012.54 1012.76 1013.03 1013.27 1013.39 1013.45 1013.45 1013.66 1013.89 1013.88 1013.84 1013.77 1013.80 1013.88 1013.51 1013.35 1013.49 1013.49 1013.56 1013.85 1014.11 1014.23 1014.46 1014.74 1014.90 1015.20 1015.33 1015.93 1016.46 1016.78 1017.23 1017.69 1018.26 1018.62 1019.00 1019.35
1011.34 1011.63 1011.96 1012.11 1012.29 1012.40 1012.43 1012.56 1012.79 1013.00 1013.16 1013.16 1013.16 1013.09 1013.53 1013.83 1013.74 1013.63 1013.52 1013.58 1013.70 1013.62 1013.36 1013.32 1013.34 1013.50 1013.66 1013.78 1013.99 1014.38 1014.71 1014.99 1015.30 1015.51 1015.90 1016.41 1016.80 1017.37 1017.66 1018.14 1018.75 1019.09 1019.32
1011.10 1011.44 1011.81 1012.07 1012.22 1012.33 1012.46 1012.55 1012.70 1012.77 1012.80 1012.82 1012.86 1012.90 1013.18 1013.35 1013.38 1013.45 1013.51 1013.45 1013.38 1013.21 1013.12 1013.15 1013.19 1013.22 1013.25 1013.53 1013.70 1013.81 1014.25 1014.68 1014.96 1015.40 1016.03 1016.48 1016.83 1017.25 1017.43 1018.03 1018.49 1019.04 1019.14
1010.68 1011.08 1011.43 1011.70 1011.87 1012.01 1012.13 1012.29 1012.33 1012.39 1012.45 1012.57 1012.66 1012.77 1012.91 1013.08 1013.16 1013.15 1013.09 1012.98 1012.91 1012.89 1012.82 1012.65 1012.53 1012.55 1012.82 1013.06 1013.38 1013.71 1013.94 1014.29 1014.71 1015.10 1015.47 1015.98 1016.45 1016.95 1017.39 1017.85 1018.11 1018.28 1018.34
1010.17 1010.59 1010.89 1011.15 1011.42 1011.58 1011.61 1011.77 1011.89 1011.95 1012.03 1012.06 1012.05 1012.19 1012.34 1012.50 1012.64 1012.73 1012.67 1012.56 1012.48 1012.42 1012.31 1012.18 1012.23 1012.35 1012.45 1012.84 1013.13 1013.49 1013.77 1014.11 1014.34 1014.67 1015.22 1015.58 1016.12 1016.53 1016.92 1017.29 1017.43 1017.36 1017.43
1009.74 1010.02 1010.27 1010.50 1010.65 1010.76 1010.89 1011.06 1011.14 1011.21 1011.33 1011.33 1011.35 1011.49 1011.68 1011.85 1011.87 1011.95 1012.00 1012.09 1012.11 1012.07 1012.02 1011.84 1011.95 1012.25 1012.43 1012.63 1012.86 1013.14 1013.59 1013.90 1014.21 1014.46 1014.69 1015.14 1015.63 1015.93 1016.19 1016.30 1016.42 1016.68 1016.77
Thickness
5766 5765 5765 5764 5767 5768 5766 5765 5758 5762 5762 5762 5763 5763 5761 5762 5762 5762 5763 5762 5761 5764 5764 5763 5766 5771 5774 5776 5777 5776 5773 5772 5765 5771 5774 5778 5775 5770 5767 5763 5761 5757 5753
5766 5766 5765 5766 5767 5769 5769 5765 5764 5759 5763 5765 5767 5766 5763 5760 5760 5759 5759 5762 5760 5761 5763 5762 5767 5770 5770 5773 5775 5775 5775 5774 5768 5764 5770 5772 5771 5769 5765 5760 5756 5751 5747
5763 5761 5762 5764 5766 5768 5769 5768 5764 5762 5762 5762 5762 5763 5761 5760 5755 5758 5758 5760 5762 5763 5765 5764 5767 5768 5768 5769 5771 5771 5772 5772 5769 5765 5766 5768 5766 5763 5758 5754 5750 5745 5741
5758 5758 5758 5756 5763 5765 5766 5768 5765 5763 5764 5764 5764 5763 5764 5764 5762 5761 5760 5759 5762 5762 5766 5766 5768 5768 5767 5768 5768 5768 5768 5766 5766 5764 5763 5763 5763 5760 5755 5748 5743 5739 5734
5755 5753 5748 5745 5753 5760 5762 5764 5768 5766 5763 5764 5764 5762 5761 5762 5764 5763 5762 5761 5761 5761 5764 5766 5767 5769 5770 5770 5767 5766 5765 5762 5761 5760 5759 5758 5757 5754 5751 5748 5740 5734 5727
5754 5753 5746 5743 5749 5754 5756 5755 5763 5762 5761 5759 5761 5762 5762 5763 5765 5765 5763 5762 5761 5759 5760 5763 5765 5766 5766 5767 5767 5767 5767 5761 5757 5755 5755 5753 5753 5751 5748 5744 5735 5726 5721
5750 5747 5746 5746 5747 5749 5750 5752 5754 5756 5756 5756 5757 5757 5760 5762 5762 5763 5763 5761 5761 5761 5760 5760 5761 5763 5762 5761 5759 5760 5759 5759 5759 5757 5752 5750 5747 5746 5744 5738 5733 5728 5722
5743 5744 5747 5744 5743 5744 5745 5745 5746 5750 5752 5752 5754 5754 5755 5761 5761 5761 5762 5761 5759 5760 5761 5760 5760 5760 5758 5755 5753 5751 5751 5751 5751 5752 5751 5748 5745 5742 5739 5735 5729 5719 5712
5737 5740 5741 5740 5740 5740 5740 5743 5746 5746 5747 5750 5752 5752 5754 5758 5759 5758 5758 5758 5757 5758 5760 5761 5761 5760 5758 5753 5749 5745 5742 5743 5744 5745 5744 5741 5738 5735 5731 5727 5719 5713 5705
5734 5734 5736 5736 5736 5737 5739 5741 5741 5745 5745 5745 5745 5748 5748 5749 5752 5754 5753 5753 5753 5754 5757 5759 5761 5762 5756 5751 5749 5744 5738 5737 5736 5733 5731 5729 5728 5726 5723 5722 5717 5707 5699
5733 5732 5729 5727 5728 5732 5732 5733 5735 5735 5738 5740 5742 5739 5737 5738 5742 5746 5745 5746 5751 5750 5752 5757 5761 5759 5754 5752 5750 5746 5741 5737 5731 5727 5722 5719 5716 5714 5714 5711 5711 5705 5695
5723 5722 5721 5724 5726 5724 5726 5727 5726 5727 5731 5735 5733 5734 5736 5733 5734 5735 5737 5738 5740 5745 5751 5755 5756 5753 5750 5748 5743 5740 5732 5726 5722 5716 5712 5709 5705 5703 5702 5700 5697 5692 5687
5716 5713 5712 5711 5711 5714 5717 5719 5719 5720 5723 5724 5725 5723 5719 5722 5727 5727 5727 5730 5733 5734 5741 5747 5750 5747 5744 5740 5740 5736 5729 5723 5713 5713 5712 5707 5704 5697 5691 5687 5680 5676 5670
5712 5708 5704 5700 5699 5701 5704 5706 5707 5707 5709 5711 5711 5709 5709 5710 5714 5718 5721 5723 5726 5729 5732 5735 5736 5737 5736 5736 5734 5735 5733 5728 5722 5719 5707 5695 5693 5686 5679 5673 5663 5660 5654
5705 5703 5697 5694 5694 5693 5692 5693 5696 5694 5695 5700 5697 5697 5698 5700 5702 5702 5706 5712 5715 5716 5718 5721 5721 5721 5722 5722 5722 5721 5716 5715 5706 5691 5692 5685 5666 5662 5660 5658 5653 5647 5637
5696 5696 5691 5686 5685 5685 5686 5685 5684 5686 5687 5686 5687 5689 5690 5688 5690 5694 5696 5700 5702 5704 5706 5706 5707 5707 5705 5706 5706 5703 5705 5695 5692 5687 5670 5658 5651 5642 5636 5631 5635 5636 5629
5689 5689 5688 5684 5682 5683 5683 5684 5684 5681 5678 5678 5677 5678 5678 5678 5679 5680 5681 5684 5687 5691 5692 5692 5692 5690 5690 5687 5684 5683 5679 5677 5667 5664 5660 5649 5640 5638 5632 5624 5622 5619 5613
5682 5682 5681 5680 5678 5678 5677 5676 5673 5673 5671 5669 5667 5665 5665 5665 5666 5668 5670 5672 5673 5672 5672 5674 5675 5674 5671 5669 5666 5662 5657 5649 5648 5643 5642 5639 5629 5628 5621 5616 5617 5612 5612
5676 5675 5676 5673 5671 5669 5668 5665 5663 5662 5659 5656 5654 5652 5650 5650 5649 5652 5653 5655 5655 5654 5653 5655 5656 5656 5656 5653 5648 5650 5647 5641 5629 5630 5630 5629 5622 5618 5615 5614 5607 5608 5604
5673 5674 5673 5670 5667 5664 5662 5659 5656 5652 5649 5647 5645 5644 5640 5638 5638 5638 5639 5637 5640 5641 5643 5642 5642 5642 5641 5641 5640 5640 5636 5631 5630 5626 5623 5621 5618 5614 5610 5605 5603 5596 5594
5665 5664 5664 5662 5660 5659 5655 5650 5645 5641 5638 5636 5635 5634 5631 5630 5630 5630 5630 5628 5628 5631 5632 5632 5633 5632 5631 5630 5630 5628 5626 5625 5621 5620 5615 5612 5611 5609 5604 5598 5595 5592 5590
5660 5657 5655 5652 5649 5648 5646 5641 5636 5631 5628 5628 5628 5628 5624 5622 5623 5624 5625 5624 5623 5623 5624 5625 5626 5625 5624 5623 5622 5620 5618 5616 5614 5613 5611 5606 5604 5598 5597 5594 5587 5584 5581
5657 5654 5649 5646 5644 5641 5638 5635 5630 5626 5624 5622 5621 5621 5619 5617 5618 5618 5618 5618 5618 5620 5620 5620 5620 5620 5619 5619 5619 5618 5615 5612 5611 5608 5601 5598 5596 5592 5592 5586 5581 5574 5573
5655 5651 5647 5645 5642 5639 5635 5631 5628 5624 5623 5621 5620 5619 5616 5614 5613 5613 5614 5614 5616 5616 5615 5615 5616 5617 5615 5613 5612 5611 5610 5607 5604 5601 5599 5595 5592 5586 5582 5578 5576 5574 5576
5655 5651 5649 5646 5642 5638 5635 5632 5629 5627 5625 5624 5623 5620 5617 5615 5613 5611 5611 5612 5612 5613 5615 5615 5615 5613 5612 5611 5608 5606 5603 5600 5599 5596 5592 5590 5586 5583 5580 5576 5575 5576 5575
5656 5654 5651 5648 5645 5643 5640 5636 5634 5632 5629 5629 5628 5624 5620 5617 5616 5614 5612 5610 5609 5610 5610 5612 5611 5608 5606 5605 5603 5601 5598 5597 5594 5592 5589 5587 5584 5582 5580 5579 5577 5575 5573